TimeHST,TemperatureF,Dew PointF,Humidity,Sea Level PressureIn,VisibilityMPH,Wind Direction,Wind SpeedMPH,Gust SpeedMPH,PrecipitationIn,Events,Conditions,WindDirDegrees,DateUTC
12:53 AM,77.0,64.9,66,30.00,10.0,Variable,5.8,-,N/A,,Partly Cloudy,0,2013-07-16 10:53:00
1:53 AM,75.9,64.9,69,29.99,10.0,NE,5.8,-,N/A,,Partly Cloudy,40,2013-07-16 11:53:00
2:53 AM,75.9,64.9,69,29.98,10.0,East,5.8,-,N/A,,Partly Cloudy,90,2013-07-16 12:53:00
3:53 AM,75.9,66.0,71,29.98,10.0,East,5.8,-,N/A,,Scattered Clouds,80,2013-07-16 13:53:00
4:53 AM,75.9,66.9,74,29.97,10.0,NE,4.6,-,N/A,,Partly Cloudy,40,2013-07-16 14:53:00
5:53 AM,75.9,66.0,71,29.99,10.0,NE,8.1,-,N/A,,Scattered Clouds,50,2013-07-16 15:53:00
6:53 AM,75.0,66.9,76,30.00,10.0,Variable,3.5,-,N/A,,Scattered Clouds,0,2013-07-16 16:53:00
7:53 AM,79.0,66.0,64,30.01,10.0,NE,11.5,-,N/A,,Scattered Clouds,50,2013-07-16 17:53:00
8:53 AM,82.0,64.9,56,30.01,10.0,East,13.8,19.6,N/A,,Scattered Clouds,90,2013-07-16 18:53:00
9:53 AM,84.0,64.0,51,30.01,10.0,East,12.7,-,N/A,,Scattered Clouds,100,2013-07-16 19:53:00
10:53 AM,82.9,63.0,51,30.00,10.0,ENE,17.3,21.9,N/A,,Scattered Clouds,60,2013-07-16 20:53:00
11:53 AM,86.0,63.0,46,29.98,10.0,ENE,18.4,-,N/A,,Scattered Clouds,60,2013-07-16 21:53:00
12:53 PM,87.1,61.0,41,29.96,10.0,ENE,16.1,26.5,N/A,,Scattered Clouds,60,2013-07-16 22:53:00
1:53 PM,87.1,62.1,43,29.95,10.0,NE,19.6,25.3,N/A,,Scattered Clouds,50,2013-07-16 23:53:00
2:53 PM,86.0,63.0,46,29.95,10.0,ENE,17.3,27.6,N/A,,Scattered Clouds,60,2013-07-17 00:53:00
3:53 PM,86.0,62.1,44,29.94,10.0,East,16.1,23.0,N/A,,Scattered Clouds,80,2013-07-17 01:53:00
4:53 PM,84.9,62.1,46,29.93,10.0,ENE,16.1,26.5,N/A,,Scattered Clouds,70,2013-07-17 02:53:00
5:53 PM,82.9,64.0,53,29.94,10.0,ENE,17.3,-,N/A,,Scattered Clouds,60,2013-07-17 03:53:00
6:53 PM,81.0,64.9,58,29.95,10.0,ENE,13.8,-,N/A,,Scattered Clouds,60,2013-07-17 04:53:00
7:53 PM,79.0,66.0,64,29.97,10.0,ENE,12.7,-,N/A,,Scattered Clouds,60,2013-07-17 05:53:00
8:53 PM,78.1,66.0,66,29.99,10.0,ENE,10.4,-,N/A,,Scattered Clouds,60,2013-07-17 06:53:00
9:53 PM,78.1,66.0,66,29.99,10.0,NE,10.4,-,N/A,,Partly Cloudy,50,2013-07-17 07:53:00
10:53 PM,78.1,64.9,64,30.00,10.0,East,10.4,-,N/A,,Partly Cloudy,80,2013-07-17 08:53:00
11:53 PM,77.0,66.0,69,29.99,10.0,ENE,8.1,-,N/A,,Partly Cloudy,60,2013-07-17 09:53:00